[[{"header":{"parameterUnit":"m.s-1","parameterCategory":1,"la1":30.2991,"la2":30.254,"lo1":-89.0895,"lo2":-89.0444,"dy":0.0017,"dx":0.0017,"nx":28,"ny":28,"refTime":"2023-10-30T21:00:00:Z","depth":0,"parameterNumber":2,"parameterNumberName":"U-component_of_WINDS"},"data":[0,0,0,0,0,0,0,0,0,0,0,0,0,0,0,0,0,0,0,0,0,0,0,0,0,0,0,0,0,0,0,0,0,0,0,0,0,0,0,0,0,0,0,0,0,0,0,0,0,0,0,0,0,0,0,0,0,0,0.7432,0.7432,0,0.7406,0.7405,0.7405,0.742,0.7421,0.7422,0.7423,0.7391,0.739,0.7388,0,0,0,0,0,0,0,0,0,0,0,0,0,0.7493,0.7492,0.7432,0.7432,0.7431,0.7406,0.7405,0.7405,0.742,0.7421,0.7422,0.7423,0.7392,0.739,0.7388,0,0,0,0,0,0,0,0,0,0,0,0,0,0.7466,0.7491,0.7432,0.7436,0.7436,0.7406,0.7405,0.7405,0.742,0.7421,0.7422,0.7423,0.7393,0.739,0.7388,0.7351,0,0,0.7381,0.738,0,0,0,0,0,0,0,0,0.7468,0.7464,0.7436,0.7436,0.7436,0.7418,0.7415,0.7387,0.742,0.7426,0.7423,0.7424,0.7399,0.7396,0.7389,0.7349,0.7348,0.7381,0.7379,0.7378,0.7378,0,0,0,0,0,0,0,0.747,0.7465,0.7421,0.7435,0.7435,0.7438,0.7436,0.741,0.7406,0.7426,0.7427,0.7424,0.7399,0.7391,0.7388,0.7348,0.7381,0.7379,0.7377,0.7376,0.7278,0.7276,0,0,0,0,0,0,0.7472,0.7467,0.7422,0.7421,0.7455,0.7436,0.7433,0.7422,0.7407,0.7405,0.7423,0.7424,0.7394,0.7391,0.7387,0.7342,0.7378,0.7376,0.7375,0.7279,0.7277,0.7276,0,0,0,0,0,0,0.7473,0.7468,0.7423,0.7444,0.7439,0.7434,0.7421,0.7421,0.7413,0.7404,0.7403,0.7415,0.7395,0.739,0.736,0.7342,0.7375,0.7373,0.728,0.7278,0.7277,0.7253,0,0,0,0,0,0,0.7475,0.7468,0.7454,0.7444,0.7438,0.7398,0.742,0.742,0.7409,0.7411,0.7397,0.7396,0.7395,0.7364,0.7358,0.7339,0.7371,0.7282,0.7279,0.7277,0.7255,0.7251,0.7247,0,0,0,0,0,0.7477,0.7448,0.7453,0.7448,0.742,0.7397,0.7393,0.7394,0.7408,0.7393,0.7388,0.7396,0.7345,0.736,0.7354,0.7334,0.7283,0.728,0.7277,0.7257,0.7252,0.7247,0,0,0,0,0,0,0.7454,0.7446,0.7452,0.7419,0.7409,0.7399,0.7381,0.7388,0.7372,0.7375,0.7376,0.7373,0.7342,0.7335,0.7352,0.7298,0.7316,0.7312,0.7303,0.7297,0.7293,0.7294,0.7369,0,0,0,0,0,0.7445,0.7428,0.7422,0.7393,0.7387,0.7385,0.7375,0.7378,0.7366,0.7361,0.7354,0.7341,0.7323,0.731,0.7292,0.7256,0.7252,0.7239,0.7234,0.7231,0.7226,0.7207,0.7201,0.7267,0.7267,0.7267,0,0,0.7427,0.742,0.7409,0.7388,0.738,0.7361,0.7381,0.736,0.7345,0.7357,0.7329,0.7323,0.731,0.7276,0.7261,0.727,0.7208,0.7227,0.7224,0.7222,0.7203,0.7197,0.7191,0.7265,0.7265,0.7266,0,0,0.7382,0.7376,0.7352,0.7344,0.7333,0.7332,0.7327,0.7317,0.7314,0.7286,0.7295,0.7277,0.7245,0.7235,0.7226,0.7181,0.7187,0.7175,0.7151,0.7132,0.7126,0.7122,0.7105,0.7099,0.7171,0.7171,0.7171,0,0.736,0.7332,0.7338,0.7316,0.7307,0.732,0.7294,0.7286,0.7269,0.7262,0.7273,0.7233,0.7225,0.719,0.7179,0.7171,0.7164,0.7175,0.7127,0.7122,0.7118,0.7102,0.7096,0.717,0.717,0.717,0.717,0,0.7305,0.7286,0.7268,0.7253,0.7242,0.7218,0.7219,0.7207,0.7212,0.721,0.7181,0.7172,0.7153,0.7146,0.7149,0.7111,0.7117,0.7127,0.7145,0.711,0.7095,0.7089,0.7168,0.7168,0.7169,0.7169,0,0,0.7243,0.7234,0.7226,0.722,0.721,0.7195,0.7172,0.7156,0.7145,0.7133,0.7114,0.7088,0.7098,0.7088,0.709,0.7074,0.7038,0.7086,0.7086,0.7077,0.6996,0.6986,0.6979,0.7044,0.7043,0.7042,0.6996,0,0.7197,0.7159,0.7165,0.7127,0.711,0.7123,0.7104,0.7095,0.7093,0.7077,0.7075,0.7056,0.7072,0.7065,0.705,0.7046,0.7022,0.7049,0.7024,0.7023,0.7025,0.6972,0.6961,0.6919,0.6991,0.699,0.6989,0,0.7138,0.7127,0.7088,0.7082,0.7075,0.7057,0.7043,0.7028,0.7019,0.7019,0.7008,0.7014,0.6991,0.7012,0.698,0.6999,0.6989,0.6986,0.6984,0.698,0.7002,0.6965,0.6906,0.6899,0.698,0.6981,0.6981,0,0.7095,0.707,0.7044,0.7039,0.7031,0.7018,0.7014,0.7006,0.6996,0.6984,0.6977,0.6962,0.6953,0.694,0.6942,0.6957,0.6909,0.693,0.6908,0.6907,0.6895,0.6895,0.6832,0.6892,0.6892,0.6892,0.6892,0,0.7043,0.7018,0.7025,0.7008,0.6982,0.6989,0.6962,0.696,0.6953,0.6936,0.6947,0.693,0.6934,0.6918,0.6919,0.6893,0.6889,0.6887,0.6887,0.6885,0.6885,0.6877,0.6879,0.689,0.6891,0.6891,0.6891,0,0.6989,0.6993,0.6965,0.6961,0.696,0.694,0.6936,0.6921,0.6921,0.69,0.6895,0.6895,0.6877,0.6878,0.6857,0.6858,0.6824,0.6829,0.6828,0.6828,0.6805,0.6807,0.6733,0.6723,0.6791,0.679,0.679,0,0.6954,0.6936,0.6931,0.6921,0.6917,0.6901,0.6891,0.6898,0.6888,0.6877,0.6862,0.6846,0.6832,0.6802,0.68,0.6784,0.6787,0.6763,0.6785,0.6783,0.6785,0.6786,0.6784,0.6757,0.6757,0.6756,0.6755,0,0.6891,0.6895,0.6881,0.6869,0.6858,0.6848,0.6839,0.6831,0.6837,0.6824,0.6807,0.6797,0.6777,0.6759,0.6745,0.674,0.6748,0.6749,0.6743,0.6739,0.6739,0.6738,0.6814,0.675,0.6751,0.6751,0.6751,0.6751,0.6845,0.683,0.6824,0.6809,0.6804,0.6796,0.6782,0.6782,0.6768,0.6752,0.6758,0.6737,0.673,0.6711,0.6705,0.6689,0.6698,0.6689,0.6687,0.6684,0.6681,0.6744,0.6687,0.6687,0.6687,0.6687,0.6687,0,0.6782,0.678,0.6766,0.6755,0.6743,0.6755,0.6746,0.6735,0.6718,0.6711,0.6699,0.6679,0.6663,0.666,0.6645,0.6633,0.6636,0.6628,0.6628,0.6627,0.6674,0.6681,0.6626,0.6626,0.6626,0.6626,0.6626,0.6626,0.6747,0.6722,0.6726,0.6698,0.6696,0.6678,0.6672,0.6665,0.6659,0.6637,0.6624,0.6624,0.6619,0.6604,0.6589,0.6589,0.6582,0.6573,0.6573,0.6617,0.6623,0.6629,0.6635,0.6571,0.6571,0.6527,0.6527,0.6526]},{"header":{"parameterUnit":"m.s-1","parameterCategory":1,"la1":30.2991,"la2":30.254,"lo1":-89.0895,"lo2":-89.0444,"dy":0.0017,"dx":0.0017,"nx":28,"ny":28,"refTime":"2023-10-30T21:00:00:Z","depth":0,"parameterNumber":3,"parameterNumberName":"V-component_of_WINDS"},"data":[0,0,0,0,0,0,0,0,0,0,0,0,0,0,0,0,0,0,0,0,0,0,0,0,0,0,0,0,0,0,0,0,0,0,0,0,0,0,0,0,0,0,0,0,0,0,0,0,0,0,0,0,0,0,0,0,0,0,-9.2183,-9.2185,0,-9.2348,-9.2349,-9.2351,-9.2222,-9.2216,-9.2211,-9.2205,-9.2368,-9.2377,-9.2387,0,0,0,0,0,0,0,0,0,0,0,0,0,-9.1752,-9.1761,-9.2183,-9.2185,-9.2187,-9.2347,-9.235,-9.2352,-9.2223,-9.2216,-9.2209,-9.2203,-9.2365,-9.2376,-9.2387,0,0,0,0,0,0,0,0,0,0,0,0,0,-9.193,-9.1763,-9.2183,-9.2142,-9.214,-9.2347,-9.235,-9.2352,-9.2224,-9.2216,-9.2208,-9.22,-9.2361,-9.2375,-9.2389,-9.2642,0,0,-9.2432,-9.2439,0,0,0,0,0,0,0,0,-9.192,-9.1946,-9.2146,-9.2145,-9.2144,-9.2256,-9.2257,-9.2449,-9.2226,-9.2192,-9.2205,-9.2196,-9.2337,-9.2353,-9.2401,-9.265,-9.2657,-9.2434,-9.2442,-9.2448,-9.2452,0,0,0,0,0,0,0,-9.1908,-9.1938,-9.2248,-9.2149,-9.2148,-9.2114,-9.213,-9.2293,-9.2309,-9.2194,-9.2185,-9.2207,-9.2335,-9.2388,-9.2404,-9.2659,-9.2433,-9.2446,-9.2455,-9.246,-9.3124,-9.3133,0,0,0,0,0,0,-9.19,-9.1929,-9.2243,-9.2253,-9.2009,-9.2129,-9.2147,-9.2228,-9.2307,-9.2311,-9.2214,-9.22,-9.2368,-9.2388,-9.241,-9.2712,-9.2448,-9.2462,-9.247,-9.3115,-9.3126,-9.3136,0,0,0,0,0,0,-9.1892,-9.193,-9.2236,-9.2089,-9.2125,-9.2145,-9.2237,-9.2236,-9.2289,-9.2322,-9.2323,-9.2266,-9.2362,-9.239,-9.2586,-9.2716,-9.2468,-9.2481,-9.3104,-9.3119,-9.3131,-9.3319,0,0,0,0,0,0,-9.188,-9.1927,-9.2025,-9.2092,-9.2133,-9.2412,-9.2245,-9.2245,-9.2315,-9.2298,-9.2371,-9.2375,-9.2358,-9.2566,-9.26,-9.2731,-9.2492,-9.3093,-9.3111,-9.3127,-9.3301,-9.3337,-9.3368,0,0,0,0,0,-9.1865,-9.207,-9.2031,-9.2069,-9.2256,-9.242,-9.2443,-9.2421,-9.2326,-9.2423,-9.2444,-9.2372,-9.2696,-9.2587,-9.2625,-9.2762,-9.3085,-9.3106,-9.3126,-9.3286,-9.333,-9.3367,0,0,0,0,0,0,-9.2015,-9.2078,-9.2035,-9.2268,-9.234,-9.2398,-9.252,-9.2468,-9.2567,-9.2548,-9.2514,-9.2532,-9.2739,-9.2769,-9.2646,-9.3011,-9.2875,-9.2904,-9.2984,-9.3026,-9.3059,-9.3047,-9.2504,0,0,0,0,0,-9.2076,-9.2206,-9.2252,-9.2453,-9.2492,-9.25,-9.257,-9.2548,-9.262,-9.2649,-9.2684,-9.2755,-9.2873,-9.2951,-9.3061,-9.3305,-9.3319,-9.3418,-9.3451,-9.3478,-9.3504,-9.3636,-9.3681,-9.3203,-9.3203,-9.3203,0,0,-9.2202,-9.2252,-9.2335,-9.2485,-9.2538,-9.2671,-9.2526,-9.2673,-9.2772,-9.267,-9.2859,-9.2888,-9.2964,-9.3186,-9.3286,-9.3218,-9.3639,-9.3505,-9.3526,-9.3537,-9.3662,-9.3707,-9.3747,-9.3217,-9.3215,-9.3213,0,0,-9.25,-9.2551,-9.2725,-9.2781,-9.2864,-9.2869,-9.2911,-9.2977,-9.2993,-9.3182,-9.3109,-9.3224,-9.3428,-9.3486,-9.3542,-9.3864,-9.3802,-9.39,-9.4076,-9.4205,-9.4242,-9.4275,-9.4391,-9.4432,-9.3926,-9.3926,-9.3926,0,-9.2645,-9.2846,-9.282,-9.2974,-9.3041,-9.2958,-9.3133,-9.3188,-9.3302,-9.335,-9.3273,-9.3528,-9.3574,-9.3808,-9.3887,-9.3935,-9.3981,-9.3892,-9.4239,-9.4272,-9.4303,-9.4412,-9.4456,-9.3938,-9.3936,-9.3935,-9.3934,0,-9.3021,-9.3161,-9.329,-9.3406,-9.3488,-9.3651,-9.3649,-9.3735,-9.3705,-9.3717,-9.3911,-9.3963,-9.4083,-9.4136,-9.4107,-9.4368,-9.4323,-9.4244,-9.4106,-9.436,-9.4463,-9.4504,-9.3954,-9.395,-9.3947,-9.3944,0,0,-9.3418,-9.3518,-9.3566,-9.3618,-9.3704,-9.381,-9.3969,-9.4089,-9.4163,-9.4244,-9.4377,-9.4551,-9.4479,-9.4543,-9.4519,-9.4633,-9.4885,-9.4539,-9.454,-9.4602,-9.5175,-9.5236,-9.5285,-9.4844,-9.4852,-9.4858,-9.5169,0,-9.372,-9.4,-9.3982,-9.4245,-9.4374,-9.4297,-9.4435,-9.4502,-9.4518,-9.4628,-9.4644,-9.4769,-9.4664,-9.4702,-9.4811,-9.4832,-9.5,-9.4809,-9.4966,-9.4972,-9.495,-9.5338,-9.5402,-9.5693,-9.5209,-9.5216,-9.5221,0,-9.4111,-9.4209,-9.4485,-9.4553,-9.4606,-9.4731,-9.484,-9.4946,-9.502,-9.5023,-9.5097,-9.5055,-9.5214,-9.5073,-9.5291,-9.5162,-9.5225,-9.5245,-9.5256,-9.527,-9.5112,-9.5363,-9.5784,-9.5829,-9.5283,-9.5278,-9.5274,0,-9.4374,-9.4574,-9.4766,-9.4812,-9.4896,-9.4986,-9.5024,-9.509,-9.5163,-9.5257,-9.5304,-9.5415,-9.5475,-9.5561,-9.555,-9.5448,-9.5773,-9.563,-9.5779,-9.578,-9.5852,-9.5847,-9.629,-9.5892,-9.5891,-9.589,-9.5889,0,-9.4714,-9.4886,-9.4885,-9.5003,-9.5194,-9.5171,-9.5359,-9.5387,-9.5447,-9.5568,-9.5507,-9.5621,-9.5599,-9.5713,-9.5705,-9.5888,-9.5915,-9.5922,-9.5918,-9.5928,-9.5927,-9.5969,-9.5949,-9.5902,-9.5899,-9.5897,-9.5895,0,-9.504,-9.5046,-9.525,-9.5314,-9.5333,-9.5471,-9.5524,-9.5635,-9.5646,-9.58,-9.5835,-9.5852,-9.5983,-9.598,-9.6128,-9.6123,-9.6347,-9.6319,-9.6324,-9.6318,-9.6468,-9.6454,-9.6953,-9.7018,-9.6577,-9.6581,-9.6585,0,-9.5257,-9.5388,-9.5467,-9.5545,-9.559,-9.5715,-9.5791,-9.5772,-9.5853,-9.5948,-9.6048,-9.6173,-9.6273,-9.6485,-9.651,-9.6623,-9.6598,-9.6765,-9.6614,-9.6621,-9.6601,-9.6594,-9.6607,-9.6794,-9.6799,-9.6803,-9.6806,0,-9.5642,-9.5639,-9.5751,-9.5865,-9.5957,-9.6045,-9.6126,-9.6193,-9.6183,-9.6277,-9.6412,-9.6489,-9.6642,-9.6767,-9.6877,-9.6913,-9.686,-9.6854,-9.6895,-9.6907,-9.6904,-9.6908,-9.6405,-9.6843,-9.6839,-9.6836,-9.6834,-9.6833,-9.5921,-9.6034,-9.6108,-9.6234,-9.6294,-9.6372,-9.648,-9.6505,-9.6618,-9.6743,-9.6724,-9.6875,-9.6945,-9.7086,-9.7134,-9.725,-9.7191,-9.7249,-9.7264,-9.728,-9.7297,-9.6886,-9.7269,-9.7268,-9.7267,-9.7267,-9.7266,0,-9.6303,-9.6347,-9.6464,-9.6581,-9.6681,-9.6623,-9.671,-9.6796,-9.6931,-9.7002,-9.7102,-9.7257,-9.7379,-9.7413,-9.753,-9.7617,-9.7595,-9.7648,-9.7642,-9.7652,-9.7342,-9.7296,-9.7664,-9.7664,-9.7664,-9.7664,-9.7664,-9.7664,-9.6514,-9.6704,-9.671,-9.6928,-9.6969,-9.7118,-9.7173,-9.7244,-9.7301,-9.7478,-9.758,-9.7602,-9.7659,-9.778,-9.7888,-9.7895,-9.7941,-9.8005,-9.8002,-9.7713,-9.7673,-9.7635,-9.7591,-9.8015,-9.8016,-9.8302,-9.8304,-9.8306]}]]